• In Russia
  • List of Countries
  • For 7 days
  • Water Temperature
  • Satellite Maps
  • Weather Map
  • Weather Widgets
  • user-avatar
    Login

    Hourly Weather Muya

    Today, 20 July, Friday

    Time Temperature Precipitation Wind Pressure Humidity
    00:00 +19°C° 0 mm 1 mps 709 mmHg 78%
    01:00 +18°C° 0 mm 1 mps 709 mmHg 78%
    02:00 +18°C° 0 mm 1 mps 709 mmHg 82%
    03:00 +18°C° 0 mm 1 mps 709 mmHg 82%
    04:00 +18°C° 0 mm 1 mps 709 mmHg 83%
    05:00 +18°C° 0 mm 1 mps 708 mmHg 83%
    06:00 +20°C° 0 mm 1 mps 708 mmHg 77%
    07:00 +22°C° 0 mm 1 mps 709 mmHg 70%
    08:00 +24°C° 0 mm 2 mps 709 mmHg 63%
    09:00 +25°C° 0 mm 2 mps 708 mmHg 59%
    10:00 +27°C° 0 mm 2 mps 708 mmHg 56%
    11:00 +28°C° 0 mm 2 mps 708 mmHg 52%
    12:00 +29°C° 0 mm 2 mps 708 mmHg 50%
    13:00 +29°C° 0 mm 3 mps 708 mmHg 48%
    14:00 +30°C° 0 mm 3 mps 707 mmHg 46%
    15:00 +30°C° 0 mm 3 mps 707 mmHg 46%
    16:00 +30°C° 0 mm 3 mps 707 mmHg 47%
    17:00 +30°C° 0 mm 3 mps 707 mmHg 48%
    18:00 +28°C° 0 mm 2 mps 707 mmHg 54%
    19:00 +27°C° 0 mm 2 mps 706 mmHg 60%
    20:00 +25°C° 0 mm 2 mps 706 mmHg 67%
    21:00 +24°C° 0 mm 2 mps 706 mmHg 68%
    22:00 +23°C° 0 mm 2 mps 706 mmHg 69%
    23:00 +21°C° 0 mm 2 mps 706 mmHg 71%

    Tomorrow, 21 July, Saturday

    Time Temperature Precipitation Wind Pressure Humidity
    00:00 +21°C° 0 mm 2 mps 706 mmHg 71%
    01:00 +20°C° 0 mm 2 mps 706 mmHg 71%
    02:00 +20°C° 0 mm 2 mps 706 mmHg 71%
    03:00 +20°C° 0 mm 2 mps 705 mmHg 72%
    04:00 +20°C° 0 mm 2 mps 705 mmHg 72%
    05:00 +20°C° 0 mm 2 mps 705 mmHg 72%
    06:00 +21°C° 0.2 mm 2 mps 704 mmHg 70%
    07:00 +23°C° 0.2 mm 2 mps 704 mmHg 68%
    08:00 +24°C° 0.2 mm 2 mps 704 mmHg 66%
    09:00 +23°C° 0.9 mm 2 mps 703 mmHg 70%
    10:00 +23°C° 0.9 mm 2 mps 703 mmHg 74%
    11:00 +21°C° 0.9 mm 2 mps 703 mmHg 77%
    12:00 +21°C° 1.7 mm 2 mps 702 mmHg 80%
    13:00 +20°C° 1.7 mm 2 mps 702 mmHg 83%
    14:00 +21°C° 1.7 mm 1 mps 702 mmHg 86%
    15:00 +22°C° 0.4 mm 1 mps 701 mmHg 83%
    16:00 +23°C° 0.4 mm 2 mps 701 mmHg 80%
    17:00 +23°C° 0.4 mm 2 mps 701 mmHg 77%
    18:00 +23°C° 0.1 mm 1 mps 701 mmHg 81%
    19:00 +22°C° 0.1 mm 1 mps 700 mmHg 84%
    20:00 +20°C° 0.1 mm 0 mps 700 mmHg 87%
    21:00 +19°C° 0.4 mm 0 mps 700 mmHg 89%
    22:00 +20°C° 0.4 mm 1 mps 700 mmHg 92%
    23:00 +19°C° 0.4 mm 1 mps 699 mmHg 94%

    Day after tomorrow, 22 July, Sunday

    Time Temperature Precipitation Wind Pressure Humidity
    00:00 +19°C° 1 mm 1 mps 699 mmHg 94%
    01:00 +19°C° 1 mm 1 mps 699 mmHg 94%
    02:00 +19°C° 1 mm 1 mps 699 mmHg 94%
    03:00 +19°C° 1.8 mm 1 mps 700 mmHg 94%
    04:00 +19°C° 1.8 mm 1 mps 700 mmHg 94%
    05:00 +18°C° 1.8 mm 2 mps 700 mmHg 94%
    06:00 +18°C° 1.6 mm 2 mps 701 mmHg 91%
    07:00 +18°C° 1.6 mm 2 mps 701 mmHg 89%
    08:00 +18°C° 1.6 mm 2 mps 701 mmHg 86%
    09:00 +19°C° 0.2 mm 3 mps 702 mmHg 78%
    10:00 +20°C° 0.2 mm 3 mps 703 mmHg 71%
    11:00 +20°C° 0.2 mm 4 mps 704 mmHg 63%
    12:00 +20°C° 0 mm 4 mps 704 mmHg 62%
    13:00 +20°C° 0 mm 5 mps 705 mmHg 61%
    14:00 +19°C° 0 mm 5 mps 705 mmHg 59%
    15:00 +17°C° 0 mm 5 mps 706 mmHg 62%
    16:00 +17°C° 0 mm 4 mps 706 mmHg 64%
    17:00 +15°C° 0 mm 4 mps 707 mmHg 67%
    18:00 +15°C° 0 mm 4 mps 708 mmHg 69%
    19:00 +14°C° 0 mm 3 mps 708 mmHg 71%
    20:00 +13°C° 0 mm 3 mps 709 mmHg 73%
    21:00 +13°C° 0 mm 3 mps 709 mmHg 76%
    22:00 +13°C° 0 mm 2 mps 709 mmHg 78%
    23:00 +12°C° 0 mm 2 mps 710 mmHg 81%

    23 July, Monday

    Time Temperature Precipitation Wind Pressure Humidity
    00:00 +10°C° 0 mm 2 mps 710 mmHg 83%
    01:00 +10°C° 0 mm 2 mps 710 mmHg 85%
    02:00 +9°C° 0 mm 2 mps 710 mmHg 87%
    03:00 +9°C° 0 mm 2 mps 711 mmHg 87%
    04:00 +9°C° 0 mm 2 mps 711 mmHg 87%
    05:00 +10°C° 0 mm 1 mps 711 mmHg 87%
    06:00 +12°C° 0 mm 1 mps 711 mmHg 79%
    07:00 +14°C° 0 mm 2 mps 711 mmHg 71%
    08:00 +16°C° 0 mm 2 mps 711 mmHg 63%
    09:00 +19°C° 0 mm 1 mps 711 mmHg 58%
    10:00 +20°C° 0 mm 1 mps 711 mmHg 52%
    11:00 +22°C° 0 mm 1 mps 711 mmHg 47%
    12:00 +23°C° 0 mm 1 mps 711 mmHg 44%
    13:00 +24°C° 0 mm 1 mps 710 mmHg 42%
    14:00 +25°C° 0 mm 1 mps 710 mmHg 39%
    15:00 +24°C° 0 mm 1 mps 710 mmHg 39%
    16:00 +24°C° 0 mm 1 mps 710 mmHg 40%
    17:00 +24°C° 0 mm 2 mps 710 mmHg 40%
    18:00 +23°C° 0 mm 1 mps 710 mmHg 47%
    19:00 +21°C° 0 mm 1 mps 710 mmHg 53%
    20:00 +19°C° 0 mm 1 mps 710 mmHg 60%
    21:00 +18°C° 0 mm 1 mps 710 mmHg 62%
    22:00 +16°C° 0 mm 1 mps 710 mmHg 64%
    23:00 +15°C° 0 mm 1 mps 710 mmHg 65%

    24 July, Tuesday

    Time Temperature Precipitation Wind Pressure Humidity
    00:00 +14°C° 0 mm 1 mps 711 mmHg 67%
    01:00 +14°C° 0 mm 1 mps 711 mmHg 70%
    02:00 +13°C° 0 mm 1 mps 711 mmHg 72%
    03:00 +13°C° 0 mm 1 mps 711 mmHg 72%
    04:00 +13°C° 0 mm 1 mps 711 mmHg 72%
    05:00 +13°C° 0 mm 1 mps 711 mmHg 73%
    06:00 +15°C° 0 mm 1 mps 711 mmHg 65%
    07:00 +18°C° 0 mm 1 mps 712 mmHg 58%
    08:00 +18°C° 0 mm 0 mps 712 mmHg 50%
    09:00 +22°C° 0 mm 1 mps 712 mmHg 47%
    10:00 +23°C° 0 mm 1 mps 712 mmHg 44%
    11:00 +24°C° 0 mm 1 mps 711 mmHg 42%
    12:00 +25°C° 0 mm 1 mps 711 mmHg 40%
    13:00 +26°C° 0 mm 1 mps 711 mmHg 39%
    14:00 +26°C° 0 mm 1 mps 710 mmHg 38%
    15:00 +26°C° 0 mm 1 mps 710 mmHg 39%
    16:00 +26°C° 0 mm 2 mps 709 mmHg 40%
    17:00 +26°C° 0 mm 2 mps 709 mmHg 41%
    18:00 +24°C° 0 mm 2 mps 709 mmHg 48%
    19:00 +23°C° 0 mm 1 mps 709 mmHg 56%
    20:00 +21°C° 0 mm 1 mps 708 mmHg 64%
    21:00 +20°C° 0 mm 1 mps 708 mmHg 66%
    22:00 +19°C° 0 mm 1 mps 708 mmHg 68%
    23:00 +18°C° 0 mm 1 mps 708 mmHg 70%

    25 July, Wednesday

    Time Temperature Precipitation Wind Pressure Humidity
    00:00 +18°C° 0.1 mm 1 mps 708 mmHg 72%
    01:00 +16°C° 0.1 mm 1 mps 707 mmHg 75%
    02:00 +16°C° 0.1 mm 1 mps 707 mmHg 78%
    03:00 +16°C° 0.1 mm 1 mps 707 mmHg 78%
    04:00 +16°C° 0.1 mm 1 mps 707 mmHg 78%
    05:00 +16°C° 0.1 mm 1 mps 707 mmHg 79%
    06:00 +19°C° 0 mm 1 mps 708 mmHg 71%
    07:00 +21°C° 0 mm 1 mps 708 mmHg 63%
    08:00 +23°C° 0 mm 1 mps 708 mmHg 55%
    09:00 +24°C° 0 mm 2 mps 708 mmHg 48%
    10:00 +25°C° 0 mm 2 mps 708 mmHg 42%
    11:00 +26°C° 0 mm 3 mps 709 mmHg 35%
    12:00 +27°C° 0 mm 3 mps 709 mmHg 33%
    13:00 +27°C° 0 mm 3 mps 709 mmHg 32%
    14:00 +28°C° 0 mm 3 mps 709 mmHg 30%
    15:00 +27°C° 0 mm 3 mps 709 mmHg 32%
    16:00 +27°C° 0 mm 3 mps 709 mmHg 34%
    17:00 +26°C° 0 mm 3 mps 709 mmHg 36%
    18:00 +24°C° 0 mm 3 mps 709 mmHg 43%
    19:00 +21°C° 0 mm 2 mps 709 mmHg 50%
    20:00 +19°C° 0 mm 2 mps 709 mmHg 58%
    21:00 +18°C° 0 mm 2 mps 709 mmHg 60%
    22:00 +16°C° 0 mm 2 mps 709 mmHg 63%
    23:00 +15°C° 0 mm 2 mps 710 mmHg 65%
    Show more